Zurück zum Katalog

STARLINK-33644

AktivKommunikationVLEO
NORAD 63414·PAYLOAD·🇺🇸 United States

Gestartet Mar 31, 2025 von Cape Canaveral Space Force Station

Loading…

Nächste Überflüge (nächste 24 Stunden)

TLE

AktuellSource: CelesTrak SupGP

Epoche: Sep 15, 2026, 02:42 UTC

1 63414C 25065R   26258.11298611  .00051447  00000+0  18632-2 0  2588
2 63414  42.9994 117.7622 0001459 273.7215  99.5569 15.27555940    16

Verfolge STARLINK-33644 in Echtzeit mit AllMySat

Download on the App Store